KAC301 OKKK-VABB

Flight info

Callsign KAC301
Flight time 3h 36m
Altitude 35000
Route OKKK/33R N0455F390 SESR4F SESRU M677 OBNET DCT TONVO P307 VAXIM L301 KARKU M638 EXOLU POKO2A VABB/27
Aircraft A321/M-SDFGHIRWY/C

Departure

Time 2026-05-07 18:19
Airport Kuwait International Airport (OKKK)

Arrival

Time 2026-05-07 21:56
Airport Chhatrapati Shivaji Maharaj International Airport (VABB)
Time Latitude Longitude Altitude Speed Heading
2026-05-07 17:52 29.24528 47.96284 147 ft 0 kts 71°
2026-05-07 18:08 29.24523 47.96267 147 ft 3 kts 71°
2026-05-07 18:08 29.24517 47.96246 147 ft 3 kts 71°
2026-05-07 18:09 29.24511 47.96226 147 ft 3 kts 71°
2026-05-07 18:09 29.24505 47.96205 147 ft 3 kts 71°
2026-05-07 18:09 29.24499 47.96185 147 ft 3 kts 94°
2026-05-07 18:09 29.24503 47.96166 147 ft 3 kts 131°
2026-05-07 18:10 29.24515 47.96154 147 ft 0 kts 158°
2026-05-07 18:13 29.24508 47.96157 147 ft 7 kts 158°
2026-05-07 18:13 29.24410 47.96209 146 ft 17 kts 157°
2026-05-07 18:13 29.24303 47.96266 146 ft 17 kts 154°
2026-05-07 18:13 29.24151 47.96349 145 ft 28 kts 156°
2026-05-07 18:14 29.23976 47.96441 147 ft 27 kts 155°
2026-05-07 18:14 29.23796 47.96537 150 ft 31 kts 154°
2026-05-07 18:14 29.23605 47.96638 152 ft 30 kts 156°
2026-05-07 18:14 29.23421 47.96737 155 ft 29 kts 157°
2026-05-07 18:15 29.23246 47.96830 157 ft 28 kts 155°
2026-05-07 18:15 29.23066 47.96924 159 ft 28 kts 155°
2026-05-07 18:15 29.22890 47.97016 161 ft 28 kts 155°
2026-05-07 18:15 29.22672 47.97133 164 ft 36 kts 155°
2026-05-07 18:16 29.22450 47.97252 167 ft 35 kts 155°
2026-05-07 18:16 29.22235 47.97367 170 ft 34 kts 155°
2026-05-07 18:16 29.22024 47.97477 172 ft 33 kts 156°
2026-05-07 18:16 29.21828 47.97585 174 ft 31 kts 154°
2026-05-07 18:17 29.21634 47.97689 177 ft 30 kts 155°
2026-05-07 18:17 29.21447 47.97786 179 ft 29 kts 156°
2026-05-07 18:17 29.21305 47.97855 181 ft 8 kts 166°
2026-05-07 18:17 29.21259 47.97833 181 ft 7 kts 230°
2026-05-07 18:18 29.21245 47.97798 181 ft 0 kts 253°
2026-05-07 18:18 29.21240 47.97754 181 ft 14 kts 275°
2026-05-07 18:18 29.21317 47.97621 178 ft 23 kts 307°
2026-05-07 18:19 29.21506 47.97503 175 ft 61 kts 334°
2026-05-07 18:19 29.22164 47.97155 169 ft 150 kts 335°
2026-05-07 18:19 29.23279 47.96559 515 ft 188 kts 332°
2026-05-07 18:19 29.24477 47.95852 1223 ft 203 kts 328°
2026-05-07 18:20 29.25780 47.95028 1820 ft 228 kts 327°
2026-05-07 18:20 29.27252 47.94095 2436 ft 250 kts 330°
2026-05-07 18:20 29.28835 47.93322 3455 ft 244 kts 334°
2026-05-07 18:20 29.30353 47.92628 3945 ft 227 kts 333°
2026-05-07 18:21 29.31868 47.92010 4056 ft 248 kts 343°
2026-05-07 18:21 29.33698 47.92034 4238 ft 279 kts 14°
2026-05-07 18:21 29.35355 47.93277 4732 ft 298 kts 49°
2026-05-07 18:21 29.36257 47.95423 5228 ft 305 kts 82°
2026-05-07 18:22 29.36095 47.97805 5742 ft 301 kts 112°
2026-05-07 18:22 29.35597 47.99290 6086 ft 302 kts 117°
2026-05-07 18:22 29.34557 48.02287 6744 ft 308 kts 114°
2026-05-07 18:22 29.33864 48.04656 7241 ft 310 kts 111°
2026-05-07 18:23 29.33261 48.07008 7734 ft 313 kts 109°
2026-05-07 18:23 29.32691 48.09425 8238 ft 315 kts 108°
2026-05-07 18:23 29.32143 48.11863 8747 ft 318 kts 108°
2026-05-07 18:23 29.31604 48.14326 9271 ft 320 kts 108°
2026-05-07 18:24 29.31069 48.16806 9794 ft 322 kts 108°
2026-05-07 18:24 29.30532 48.19311 10262 ft 326 kts 108°
2026-05-07 18:24 29.29990 48.21847 10750 ft 330 kts 108°
2026-05-07 18:24 29.29441 48.24419 11253 ft 335 kts 108°
2026-05-07 18:25 29.28873 48.27071 11725 ft 352 kts 108°
2026-05-07 18:25 29.28271 48.29873 12081 ft 372 kts 107°
2026-05-07 18:25 29.27640 48.32820 12437 ft 389 kts 107°
2026-05-07 18:25 29.26984 48.35886 12792 ft 403 kts 107°
2026-05-07 18:26 29.26311 48.39041 13142 ft 411 kts 107°
2026-05-07 18:26 29.25631 48.42226 13495 ft 414 kts 107°
2026-05-07 18:26 29.24943 48.45444 13794 ft 420 kts 108°
2026-05-07 18:26 29.24246 48.48690 14237 ft 427 kts 108°
2026-05-07 18:27 29.23536 48.51994 14926 ft 428 kts 108°
2026-05-07 18:27 29.22821 48.55321 15600 ft 430 kts 108°
2026-05-07 18:27 29.22101 48.58661 16255 ft 433 kts 108°
2026-05-07 18:27 29.21877 48.59699 16452 ft 435 kts 108°
2026-05-07 18:28 29.21809 48.60017 16502 ft 435 kts 108°
2026-05-07 18:28 29.21417 48.61830 16800 ft 438 kts 108°
2026-05-07 18:29 29.20931 48.64077 17158 ft 442 kts 108°
2026-05-07 18:29 29.20187 48.67514 17792 ft 444 kts 108°
2026-05-07 18:29 29.19448 48.70930 18359 ft 447 kts 108°
2026-05-07 18:30 29.18695 48.74398 18830 ft 450 kts 108°
2026-05-07 18:30 29.17939 48.77881 19307 ft 453 kts 108°
2026-05-07 18:30 29.17175 48.81395 19793 ft 456 kts 108°
2026-05-07 18:30 29.16405 48.84922 20277 ft 458 kts 108°
2026-05-07 18:31 29.15435 48.88387 20764 ft 456 kts 117°
2026-05-07 18:31 29.13945 48.91570 21235 ft 452 kts 129°
2026-05-07 18:31 29.11941 48.94317 21747 ft 447 kts 139°
2026-05-07 18:31 29.09690 48.96771 22265 ft 448 kts 143°
2026-05-07 18:32 29.07335 48.99116 22780 ft 449 kts 144°
2026-05-07 18:32 29.04933 49.01408 23296 ft 452 kts 145°
2026-05-07 18:32 29.02523 49.03681 23732 ft 455 kts 145°
2026-05-07 18:32 29.00076 49.05997 24141 ft 459 kts 145°
2026-05-07 18:33 28.97617 49.08342 24466 ft 464 kts 145°
2026-05-07 18:33 28.95127 49.10735 24779 ft 470 kts 145°
2026-05-07 18:33 28.92622 49.13159 25192 ft 473 kts 144°
2026-05-07 18:33 28.90107 49.15601 25609 ft 475 kts 144°
2026-05-07 18:34 28.87585 49.18061 26005 ft 479 kts 144°
2026-05-07 18:34 28.85076 49.20579 26374 ft 482 kts 143°
2026-05-07 18:34 28.82602 49.23112 26758 ft 485 kts 143°
2026-05-07 18:34 28.80094 49.25701 27119 ft 488 kts 142°
2026-05-07 18:35 28.77561 49.28320 27481 ft 491 kts 142°
2026-05-07 18:35 28.75022 49.30940 27827 ft 494 kts 142°
2026-05-07 18:35 28.72464 49.33571 28168 ft 497 kts 142°
2026-05-07 18:35 28.69900 49.36202 28622 ft 497 kts 142°
2026-05-07 18:36 28.67331 49.38834 29123 ft 496 kts 143°
2026-05-07 18:36 28.64766 49.41458 29689 ft 493 kts 143°
2026-05-07 18:36 28.62273 49.44126 30219 ft 494 kts 139°
2026-05-07 18:36 28.60060 49.47154 30584 ft 501 kts 130°
2026-05-07 18:37 28.58128 49.50409 30954 ft 503 kts 128°
2026-05-07 18:37 28.56254 49.53784 31296 ft 506 kts 127°
2026-05-07 18:37 28.54422 49.57209 31608 ft 508 kts 127°
2026-05-07 18:37 28.52606 49.60663 32004 ft 508 kts 127°
2026-05-07 18:38 28.50797 49.64112 32404 ft 507 kts 127°
2026-05-07 18:38 28.48985 49.67556 32783 ft 507 kts 128°
2026-05-07 18:38 28.47165 49.70994 33135 ft 508 kts 128°
2026-05-07 18:38 28.45337 49.74427 33493 ft 508 kts 128°
2026-05-07 18:39 28.43451 49.77819 33790 ft 505 kts 133°
2026-05-07 18:39 28.41242 49.80872 33947 ft 494 kts 142°
2026-05-07 18:39 28.38711 49.83425 33907 ft 482 kts 151°
2026-05-07 18:40 28.33313 49.87801 33900 ft 478 kts 154°
2026-05-07 18:40 28.27771 49.91961 33901 ft 477 kts 155°
2026-05-07 18:41 28.22230 49.96097 33898 ft 477 kts 155°
2026-05-07 18:41 28.16696 50.00267 33894 ft 478 kts 154°
2026-05-07 18:42 28.11161 50.04457 33897 ft 479 kts 154°
2026-05-07 18:42 28.05623 50.08652 33897 ft 479 kts 154°
2026-05-07 18:43 28.00078 50.12845 33889 ft 479 kts 154°
2026-05-07 18:43 27.94564 50.17006 33894 ft 479 kts 154°
2026-05-07 18:44 27.89013 50.21190 33891 ft 479 kts 154°
2026-05-07 18:44 27.83458 50.25373 33892 ft 480 kts 154°
2026-05-07 18:45 27.77907 50.29548 33891 ft 479 kts 154°
2026-05-07 18:45 27.72364 50.33711 33891 ft 478 kts 154°
2026-05-07 18:46 27.66820 50.37869 33889 ft 478 kts 154°
2026-05-07 18:46 27.61288 50.42027 33886 ft 477 kts 154°
2026-05-07 18:47 27.55831 50.46201 33880 ft 477 kts 153°
2026-05-07 18:47 27.50342 50.50419 33874 ft 477 kts 153°
2026-05-07 18:48 27.44850 50.54630 33873 ft 477 kts 153°
2026-05-07 18:48 27.39360 50.58829 33877 ft 477 kts 153°
2026-05-07 18:49 27.33868 50.63021 33867 ft 477 kts 153°
2026-05-07 18:49 27.28375 50.67210 33864 ft 477 kts 153°
2026-05-07 18:50 27.22860 50.71409 33865 ft 478 kts 153°
2026-05-07 18:50 27.17384 50.75576 33864 ft 479 kts 153°
2026-05-07 18:51 27.12242 50.80476 33863 ft 489 kts 143°
2026-05-07 18:51 27.07396 50.85848 33857 ft 490 kts 141°
2026-05-07 18:52 27.02603 50.91308 33862 ft 491 kts 141°
2026-05-07 18:52 26.98348 50.97429 33858 ft 503 kts 130°
2026-05-07 18:53 26.94574 51.04058 33861 ft 505 kts 128°
2026-05-07 18:53 26.90917 51.10724 33856 ft 505 kts 127°
2026-05-07 18:54 26.87440 51.17579 33857 ft 512 kts 118°
2026-05-07 18:54 26.84927 51.25090 33855 ft 515 kts 114°
2026-05-07 18:55 26.82638 51.32718 33856 ft 516 kts 113°
2026-05-07 18:55 26.80385 51.40357 33842 ft 517 kts 113°
2026-05-07 18:56 26.78496 51.46705 33845 ft 517 kts 113°
2026-05-07 18:56 26.76210 51.54316 33840 ft 517 kts 114°
2026-05-07 18:57 26.73906 51.61948 33840 ft 517 kts 114°
2026-05-07 18:57 26.71622 51.69535 33844 ft 518 kts 113°
2026-05-07 18:58 26.69327 51.77193 33842 ft 518 kts 113°
2026-05-07 18:58 26.67033 51.84835 33840 ft 517 kts 113°
2026-05-07 18:59 26.64728 51.92410 33837 ft 517 kts 114°
2026-05-07 18:59 26.62296 51.99933 33834 ft 516 kts 115°
2026-05-07 19:00 26.59820 52.07458 33834 ft 516 kts 115°
2026-05-07 19:00 26.57345 52.14995 33837 ft 516 kts 115°
2026-05-07 19:01 26.54877 52.22532 33833 ft 516 kts 115°
2026-05-07 19:01 26.52432 52.29996 33829 ft 515 kts 115°
2026-05-07 19:02 26.49958 52.37529 33829 ft 516 kts 115°
2026-05-07 19:02 26.47483 52.45047 33828 ft 516 kts 115°
2026-05-07 19:03 26.45004 52.52564 33828 ft 516 kts 115°
2026-05-07 19:03 26.42515 52.60096 33829 ft 516 kts 115°
2026-05-07 19:04 26.40030 52.67600 33823 ft 515 kts 115°
2026-05-07 19:04 26.37559 52.75050 33826 ft 515 kts 115°
2026-05-07 19:05 26.35065 52.82554 33829 ft 516 kts 115°
2026-05-07 19:05 26.32562 52.90058 33829 ft 516 kts 115°
2026-05-07 19:06 26.30057 52.97554 33825 ft 514 kts 115°
2026-05-07 19:06 26.26306 53.08754 33826 ft 514 kts 114°
2026-05-07 19:07 26.23815 53.16172 33830 ft 514 kts 114°
2026-05-07 19:07 26.21303 53.23639 33829 ft 514 kts 114°
2026-05-07 19:08 26.18788 53.31099 33817 ft 515 kts 114°
2026-05-07 19:08 26.16057 53.38451 33823 ft 512 kts 118°
2026-05-07 19:09 26.13095 53.45646 33823 ft 511 kts 119°
2026-05-07 19:09 26.10126 53.52797 33823 ft 511 kts 118°
2026-05-07 19:10 26.07168 53.60001 33824 ft 511 kts 118°
2026-05-07 19:10 26.04226 53.67206 33824 ft 512 kts 118°
2026-05-07 19:11 26.01285 53.74411 33821 ft 512 kts 118°
2026-05-07 19:11 25.98666 53.81800 33820 ft 515 kts 113°
2026-05-07 19:12 25.96304 53.89345 33818 ft 516 kts 112°
2026-05-07 19:12 25.93947 53.96879 33811 ft 516 kts 113°
2026-05-07 19:13 25.91556 54.04357 33813 ft 516 kts 113°
2026-05-07 19:13 25.89125 54.11868 33810 ft 516 kts 113°
2026-05-07 19:14 25.86692 54.19358 33806 ft 515 kts 113°
2026-05-07 19:14 25.84262 54.26824 33805 ft 515 kts 113°
2026-05-07 19:15 25.81819 54.34324 33811 ft 515 kts 113°
2026-05-07 19:15 25.79377 54.41806 33804 ft 515 kts 113°
2026-05-07 19:16 25.76947 54.49235 33804 ft 515 kts 113°
2026-05-07 19:16 25.74504 54.56693 33808 ft 513 kts 113°
2026-05-07 19:17 25.72060 54.64136 33805 ft 513 kts 113°
2026-05-07 19:17 25.69611 54.71579 33815 ft 513 kts 113°
2026-05-07 19:18 25.67166 54.78996 33813 ft 514 kts 113°
2026-05-07 19:18 25.64709 54.86435 33816 ft 514 kts 113°
2026-05-07 19:19 25.62266 54.93819 33819 ft 513 kts 113°
2026-05-07 19:19 25.59809 55.01233 33806 ft 511 kts 113°
2026-05-07 19:20 25.57351 55.08631 33814 ft 511 kts 113°
2026-05-07 19:20 25.54890 55.16022 33815 ft 511 kts 113°
2026-05-07 19:21 25.52425 55.23415 33807 ft 511 kts 113°
2026-05-07 19:21 25.49971 55.30761 33815 ft 511 kts 113°
2026-05-07 19:22 25.47503 55.38135 33822 ft 509 kts 113°
2026-05-07 19:22 25.45040 55.45481 33825 ft 508 kts 113°
2026-05-07 19:23 25.42576 55.52812 33823 ft 508 kts 112°
2026-05-07 19:23 25.40109 55.60139 33829 ft 508 kts 113°
2026-05-07 19:24 25.37636 55.67472 33823 ft 508 kts 113°
2026-05-07 19:24 25.35181 55.74736 33816 ft 508 kts 113°
2026-05-07 19:25 25.32710 55.82037 33822 ft 506 kts 112°
2026-05-07 19:25 25.30238 55.89327 33822 ft 506 kts 112°
2026-05-07 19:26 25.27767 55.96598 33819 ft 505 kts 112°
2026-05-07 19:26 25.25287 56.03879 33807 ft 505 kts 113°
2026-05-07 19:27 25.22809 56.11139 33793 ft 505 kts 113°
2026-05-07 19:27 25.20325 56.18408 33791 ft 506 kts 113°
2026-05-07 19:28 25.17866 56.25591 33774 ft 503 kts 113°
2026-05-07 19:28 25.15395 56.32797 33768 ft 503 kts 112°
2026-05-07 19:29 25.12906 56.40043 33774 ft 503 kts 112°
2026-05-07 19:29 25.10419 56.47275 33773 ft 504 kts 113°
2026-05-07 19:30 25.07915 56.54498 33766 ft 503 kts 114°
2026-05-07 19:30 25.05296 56.61659 33766 ft 503 kts 114°
2026-05-07 19:31 25.02635 56.68782 33754 ft 502 kts 114°
2026-05-07 19:31 25.00000 56.75842 33755 ft 502 kts 114°
2026-05-07 19:32 24.97348 56.82968 33766 ft 502 kts 114°
2026-05-07 19:32 24.94698 56.90086 33762 ft 502 kts 114°
2026-05-07 19:33 24.92067 56.97146 33769 ft 502 kts 114°
2026-05-07 19:33 24.89413 57.04254 33765 ft 502 kts 114°
2026-05-07 19:34 24.86761 57.11343 33766 ft 500 kts 114°
2026-05-07 19:34 24.84105 57.18431 33764 ft 501 kts 114°
2026-05-07 19:35 24.81438 57.25535 33764 ft 501 kts 114°
2026-05-07 19:35 24.78791 57.32575 33764 ft 501 kts 114°
2026-05-07 19:36 24.73667 57.46169 33759 ft 501 kts 114°
2026-05-07 19:37 24.71003 57.53220 33765 ft 499 kts 114°
2026-05-07 19:37 24.68334 57.60271 33767 ft 499 kts 114°
2026-05-07 19:38 24.65663 57.67318 33765 ft 499 kts 114°
2026-05-07 19:38 24.63001 57.74327 33766 ft 500 kts 114°
2026-05-07 19:39 24.60314 57.81389 33764 ft 500 kts 114°
2026-05-07 19:39 24.57626 57.88446 33764 ft 500 kts 114°
2026-05-07 19:40 24.54937 57.95491 33766 ft 500 kts 114°
2026-05-07 19:40 24.52255 58.02507 33766 ft 501 kts 114°
2026-05-07 19:41 24.49547 58.09577 33762 ft 501 kts 114°
2026-05-07 19:41 24.46840 58.16636 33762 ft 501 kts 114°
2026-05-07 19:42 24.44127 58.23697 33760 ft 502 kts 114°
2026-05-07 19:42 24.41407 58.30766 33759 ft 503 kts 114°
2026-05-07 19:43 24.38685 58.37828 33761 ft 501 kts 114°
2026-05-07 19:43 24.35971 58.44860 33760 ft 501 kts 114°
2026-05-07 19:44 24.33268 58.51849 33758 ft 501 kts 114°
2026-05-07 19:44 24.30543 58.58886 33757 ft 501 kts 114°
2026-05-07 19:45 24.27810 58.65932 33760 ft 501 kts 114°
2026-05-07 19:45 24.25075 58.72971 33759 ft 501 kts 114°
2026-05-07 19:46 24.22338 58.80005 33757 ft 501 kts 114°
2026-05-07 19:46 24.19607 58.87011 33755 ft 500 kts 114°
2026-05-07 19:47 24.16873 58.94015 33760 ft 500 kts 114°
2026-05-07 19:47 24.14153 59.00970 33759 ft 500 kts 114°
2026-05-07 19:48 24.11412 59.07970 33754 ft 500 kts 114°
2026-05-07 19:48 24.08664 59.14974 33756 ft 501 kts 114°
2026-05-07 19:49 24.05914 59.21974 33754 ft 500 kts 115°
2026-05-07 19:49 24.03162 59.28971 33746 ft 499 kts 115°
2026-05-07 19:50 24.00443 59.35962 33754 ft 500 kts 114°
2026-05-07 19:50 23.97828 59.43012 33748 ft 500 kts 113°
2026-05-07 19:51 23.95234 59.50070 33738 ft 500 kts 113°
2026-05-07 19:51 23.92646 59.57073 33740 ft 500 kts 113°
2026-05-07 19:52 23.90030 59.64112 33749 ft 500 kts 113°
2026-05-07 19:52 23.87405 59.71155 33751 ft 499 kts 113°
2026-05-07 19:53 23.84780 59.78187 33752 ft 499 kts 113°
2026-05-07 19:53 23.82172 59.85170 33749 ft 499 kts 113°
2026-05-07 19:54 23.79549 59.92186 33746 ft 499 kts 113°
2026-05-07 19:54 23.76920 59.99205 33747 ft 499 kts 113°
2026-05-07 19:55 23.74302 60.06184 33749 ft 499 kts 113°
2026-05-07 19:55 23.71667 60.13195 33744 ft 499 kts 113°
2026-05-07 19:56 23.69030 60.20200 33746 ft 499 kts 113°
2026-05-07 19:56 23.66391 60.27201 33743 ft 499 kts 113°
2026-05-07 19:57 23.63748 60.34202 33749 ft 499 kts 113°
2026-05-07 19:57 23.61101 60.41204 33746 ft 499 kts 113°
2026-05-07 19:58 23.58451 60.48207 33745 ft 499 kts 113°
2026-05-07 19:58 23.55799 60.55202 33747 ft 500 kts 113°
2026-05-07 19:59 23.53142 60.62198 33745 ft 499 kts 113°
2026-05-07 19:59 23.50478 60.69198 33749 ft 499 kts 113°
2026-05-07 20:00 23.47829 60.76151 33754 ft 499 kts 113°
2026-05-07 20:00 23.45163 60.83134 33755 ft 500 kts 114°
2026-05-07 20:01 23.42494 60.90117 33750 ft 500 kts 114°
2026-05-07 20:01 23.39816 60.97110 33750 ft 499 kts 114°
2026-05-07 20:02 23.37139 61.04090 33751 ft 499 kts 114°
2026-05-07 20:02 23.34473 61.11033 33748 ft 500 kts 114°
2026-05-07 20:03 23.32042 61.18118 33750 ft 501 kts 104°
2026-05-07 20:03 23.30982 61.25597 33752 ft 501 kts 97°
2026-05-07 20:04 23.30290 61.33146 33752 ft 501 kts 95°
2026-05-07 20:04 23.29663 61.40702 33755 ft 502 kts 95°
2026-05-07 20:05 23.29014 61.48261 33754 ft 502 kts 95°
2026-05-07 20:05 23.28346 61.55771 33752 ft 502 kts 96°
2026-05-07 20:06 23.27663 61.63325 33752 ft 502 kts 96°
2026-05-07 20:06 23.26976 61.70875 33749 ft 502 kts 96°
2026-05-07 20:07 23.26285 61.78439 33750 ft 502 kts 96°
2026-05-07 20:07 23.25592 61.85992 33750 ft 502 kts 96°
2026-05-07 20:08 23.24897 61.93537 33748 ft 502 kts 96°
2026-05-07 20:08 23.24196 62.01093 33750 ft 501 kts 95°
2026-05-07 20:09 23.23498 62.08585 33752 ft 501 kts 95°
2026-05-07 20:10 23.22436 62.19901 33759 ft 501 kts 96°
2026-05-07 20:10 23.21725 62.27436 33753 ft 501 kts 95°
2026-05-07 20:11 23.21130 62.33705 33750 ft 501 kts 96°
2026-05-07 20:11 23.20296 62.42460 33750 ft 501 kts 96°
2026-05-07 20:12 23.19573 62.49994 33754 ft 501 kts 96°
2026-05-07 20:12 23.18970 62.56252 33753 ft 501 kts 95°
2026-05-07 20:13 23.18242 62.63779 33755 ft 501 kts 96°
2026-05-07 20:13 23.17509 62.71320 33757 ft 501 kts 96°
2026-05-07 20:14 23.16773 62.78853 33755 ft 501 kts 96°
2026-05-07 20:14 23.16032 62.86386 33756 ft 501 kts 95°
2026-05-07 20:15 23.15290 62.93909 33759 ft 501 kts 96°
2026-05-07 20:15 23.14549 63.01385 33763 ft 500 kts 95°
2026-05-07 20:16 23.13800 63.08890 33759 ft 499 kts 96°
2026-05-07 20:16 23.13048 63.16402 33769 ft 499 kts 95°
2026-05-07 20:17 23.12293 63.23908 33766 ft 499 kts 95°
2026-05-07 20:17 23.11534 63.31412 33765 ft 499 kts 96°
2026-05-07 20:18 23.10772 63.38910 33771 ft 499 kts 96°
2026-05-07 20:18 23.10007 63.46402 33769 ft 499 kts 95°
2026-05-07 20:19 23.09238 63.53898 33775 ft 499 kts 95°
2026-05-07 20:19 23.08469 63.61355 33775 ft 499 kts 95°
2026-05-07 20:20 23.07693 63.68854 33773 ft 499 kts 96°
2026-05-07 20:20 23.06913 63.76347 33773 ft 500 kts 95°
2026-05-07 20:21 23.06105 63.83854 33776 ft 501 kts 98°
2026-05-07 20:21 23.04146 63.91113 33775 ft 502 kts 110°
2026-05-07 20:22 23.01587 63.98162 33776 ft 502 kts 112°
2026-05-07 20:22 22.98913 64.05157 33782 ft 502 kts 112°
2026-05-07 20:23 22.96228 64.12183 33774 ft 503 kts 112°
2026-05-07 20:23 22.93559 64.19214 33774 ft 504 kts 112°
2026-05-07 20:24 22.90912 64.26205 33781 ft 504 kts 112°
2026-05-07 20:24 22.88244 64.33238 33776 ft 504 kts 112°
2026-05-07 20:25 22.85575 64.40266 33783 ft 504 kts 112°
2026-05-07 20:25 22.82896 64.47307 33778 ft 504 kts 112°
2026-05-07 20:26 22.80218 64.54336 33781 ft 503 kts 112°
2026-05-07 20:26 22.77566 64.61288 33779 ft 502 kts 112°
2026-05-07 20:27 22.74892 64.68286 33778 ft 503 kts 112°
2026-05-07 20:27 22.72211 64.75290 33779 ft 502 kts 112°
2026-05-07 20:28 22.69530 64.82285 33781 ft 502 kts 112°
2026-05-07 20:28 22.66845 64.89279 33781 ft 502 kts 112°
2026-05-07 20:29 22.64173 64.96229 33785 ft 503 kts 112°
2026-05-07 20:29 22.61482 65.03217 33784 ft 503 kts 112°
2026-05-07 20:30 22.58787 65.10204 33786 ft 502 kts 112°
2026-05-07 20:30 22.56092 65.17182 33784 ft 502 kts 112°
2026-05-07 20:31 22.53397 65.24151 33787 ft 502 kts 112°
2026-05-07 20:31 22.50706 65.31097 33784 ft 502 kts 112°
2026-05-07 20:32 22.48000 65.38072 33792 ft 503 kts 112°
2026-05-07 20:32 22.45287 65.45052 33791 ft 504 kts 112°
2026-05-07 20:33 22.42590 65.51985 33794 ft 504 kts 112°
2026-05-07 20:33 22.39869 65.58966 33786 ft 501 kts 112°
2026-05-07 20:34 22.37161 65.65905 33788 ft 501 kts 112°
2026-05-07 20:34 22.34443 65.72859 33783 ft 502 kts 112°
2026-05-07 20:35 22.31743 65.79756 33784 ft 502 kts 112°
2026-05-07 20:35 22.29019 65.86705 33796 ft 502 kts 112°
2026-05-07 20:36 22.26293 65.93647 33800 ft 502 kts 112°
2026-05-07 20:36 22.23566 66.00584 33795 ft 502 kts 112°
2026-05-07 20:37 22.20833 66.07524 33788 ft 503 kts 112°
2026-05-07 20:37 22.18097 66.14462 33793 ft 501 kts 112°
2026-05-07 20:38 22.15384 66.21332 33803 ft 500 kts 112°
2026-05-07 20:38 22.12653 66.28239 33795 ft 501 kts 112°
2026-05-07 20:39 22.09912 66.35159 33795 ft 502 kts 112°
2026-05-07 20:39 22.07164 66.42087 33797 ft 502 kts 112°
2026-05-07 20:40 22.04412 66.49016 33799 ft 502 kts 112°
2026-05-07 20:40 22.01680 66.55885 33798 ft 502 kts 112°
2026-05-07 20:41 21.98926 66.62802 33797 ft 503 kts 112°
2026-05-07 20:41 21.96164 66.69727 33797 ft 502 kts 112°
2026-05-07 20:42 21.93403 66.76641 33802 ft 502 kts 112°
2026-05-07 20:42 21.90642 66.83543 33803 ft 502 kts 113°
2026-05-07 20:43 21.87877 66.90448 33804 ft 502 kts 113°
2026-05-07 20:43 21.85107 66.97353 33800 ft 502 kts 113°
2026-05-07 20:44 21.82354 67.04208 33799 ft 502 kts 113°
2026-05-07 20:44 21.79579 67.11108 33800 ft 502 kts 113°
2026-05-07 20:45 21.76795 67.18019 33799 ft 502 kts 113°
2026-05-07 20:45 21.74017 67.24906 33805 ft 501 kts 113°
2026-05-07 20:46 21.71257 67.31739 33804 ft 501 kts 113°
2026-05-07 20:46 21.68474 67.38618 33806 ft 501 kts 113°
2026-05-07 20:47 21.65689 67.45495 33801 ft 501 kts 113°
2026-05-07 20:47 21.62901 67.52367 33804 ft 501 kts 113°
2026-05-07 20:48 21.60110 67.59238 33799 ft 502 kts 113°
2026-05-07 20:48 21.57310 67.66121 33803 ft 503 kts 113°
2026-05-07 20:49 21.54504 67.73010 33804 ft 503 kts 113°
2026-05-07 20:49 21.51722 67.79831 33810 ft 501 kts 113°
2026-05-07 20:50 21.48924 67.86679 33803 ft 500 kts 113°
2026-05-07 20:50 21.46125 67.93523 33810 ft 500 kts 113°
2026-05-07 20:51 21.43323 68.00363 33808 ft 500 kts 113°
2026-05-07 20:51 21.40521 68.07195 33810 ft 500 kts 113°
2026-05-07 20:52 21.37729 68.13993 33808 ft 500 kts 113°
2026-05-07 20:52 21.34920 68.20821 33814 ft 500 kts 113°
2026-05-07 20:53 21.32105 68.27656 33809 ft 501 kts 113°
2026-05-07 20:53 21.29285 68.34495 33807 ft 500 kts 114°
2026-05-07 20:54 21.26470 68.41312 33810 ft 499 kts 114°
2026-05-07 20:54 21.23653 68.48124 33810 ft 499 kts 114°
2026-05-07 20:55 21.20835 68.54929 33809 ft 500 kts 114°
2026-05-07 20:55 21.18009 68.61744 33816 ft 501 kts 114°
2026-05-07 20:56 21.15192 68.68529 33818 ft 501 kts 114°
2026-05-07 20:56 21.12359 68.75342 33814 ft 501 kts 114°
2026-05-07 20:57 21.09521 68.82160 33811 ft 501 kts 114°
2026-05-07 20:57 21.06682 68.88968 33812 ft 500 kts 114°
2026-05-07 20:58 21.03841 68.95774 33811 ft 500 kts 114°
2026-05-07 20:58 21.01011 69.02547 33811 ft 500 kts 114°
2026-05-07 20:59 20.98168 69.09352 33817 ft 500 kts 112°
2026-05-07 20:59 20.95869 69.16385 33812 ft 500 kts 108°
2026-05-07 21:00 20.93718 69.23459 33816 ft 501 kts 107°
2026-05-07 21:00 20.91570 69.30562 33817 ft 502 kts 107°
2026-05-07 21:01 20.89433 69.37625 33817 ft 502 kts 107°
2026-05-07 21:01 20.87283 69.44724 33817 ft 502 kts 107°
2026-05-07 21:02 20.85125 69.51837 33816 ft 502 kts 108°
2026-05-07 21:02 20.83331 69.57741 33815 ft 503 kts 107°
2026-05-07 21:03 20.80811 69.66022 33816 ft 504 kts 107°
2026-05-07 21:03 20.78993 69.71988 33816 ft 504 kts 107°
2026-05-07 21:04 20.76833 69.79064 33813 ft 504 kts 108°
2026-05-07 21:04 20.74655 69.86186 33813 ft 504 kts 108°
2026-05-07 21:05 20.72470 69.93322 33813 ft 505 kts 108°
2026-05-07 21:05 20.70278 70.00467 33813 ft 506 kts 108°
2026-05-07 21:06 20.68083 70.07609 33811 ft 506 kts 108°
2026-05-07 21:06 20.65883 70.14758 33813 ft 506 kts 108°
2026-05-07 21:07 20.63699 70.21844 33818 ft 506 kts 108°
2026-05-07 21:07 20.61497 70.28975 33809 ft 505 kts 108°
2026-05-07 21:08 20.59293 70.36101 33810 ft 504 kts 108°
2026-05-07 21:08 20.57091 70.43213 33810 ft 504 kts 108°
2026-05-07 21:09 20.54884 70.50326 33809 ft 504 kts 108°
2026-05-07 21:09 20.52690 70.57386 33807 ft 505 kts 108°
2026-05-07 21:10 20.50473 70.64507 33805 ft 506 kts 108°
2026-05-07 21:10 20.48251 70.71636 33804 ft 506 kts 108°
2026-05-07 21:11 20.46025 70.78765 33802 ft 506 kts 108°
2026-05-07 21:11 20.42683 70.89446 33803 ft 506 kts 108°
2026-05-07 21:12 20.40462 70.96532 33803 ft 508 kts 108°
2026-05-07 21:12 20.38221 71.03668 33798 ft 506 kts 108°
2026-05-07 21:13 20.35987 71.10772 33799 ft 505 kts 108°
2026-05-07 21:13 20.33750 71.17875 33797 ft 505 kts 108°
2026-05-07 21:14 20.31513 71.24967 33799 ft 505 kts 108°
2026-05-07 21:14 20.29270 71.32066 33802 ft 505 kts 108°
2026-05-07 21:15 20.27030 71.39144 33483 ft 503 kts 108°
2026-05-07 21:15 20.25924 71.42635 33079 ft 505 kts 108°
2026-05-07 21:15 20.24799 71.46184 32692 ft 507 kts 108°
2026-05-07 21:16 20.23670 71.49740 32294 ft 508 kts 108°
2026-05-07 21:16 20.22509 71.53309 31903 ft 509 kts 110°
2026-05-07 21:16 20.20992 71.56710 31523 ft 511 kts 121°
2026-05-07 21:16 20.18911 71.59777 31148 ft 512 kts 130°
2026-05-07 21:17 20.16533 71.62612 30782 ft 514 kts 133°
2026-05-07 21:17 20.14099 71.65402 30403 ft 515 kts 133°
2026-05-07 21:17 20.11659 71.68188 30048 ft 516 kts 133°
2026-05-07 21:17 20.09212 71.70989 29647 ft 515 kts 133°
2026-05-07 21:18 20.06782 71.73775 29229 ft 513 kts 133°
2026-05-07 21:18 20.04359 71.76556 28813 ft 510 kts 133°
2026-05-07 21:18 20.01958 71.79313 28394 ft 507 kts 133°
2026-05-07 21:18 19.99571 71.82054 28005 ft 504 kts 132°
2026-05-07 21:19 19.97192 71.84785 27601 ft 501 kts 132°
2026-05-07 21:19 19.94832 71.87493 27215 ft 498 kts 132°
2026-05-07 21:19 19.92486 71.90185 26824 ft 495 kts 132°
2026-05-07 21:19 19.90149 71.92864 26455 ft 493 kts 132°
2026-05-07 21:20 19.87821 71.95532 26079 ft 490 kts 132°
2026-05-07 21:20 19.85537 71.98149 25705 ft 488 kts 132°
2026-05-07 21:20 19.83238 72.00781 25339 ft 484 kts 131°
2026-05-07 21:20 19.80952 72.03399 24977 ft 481 kts 131°
2026-05-07 21:21 19.78678 72.06000 24620 ft 479 kts 131°
2026-05-07 21:21 19.76325 72.08498 24266 ft 477 kts 136°
2026-05-07 21:21 19.73881 72.10868 23918 ft 474 kts 137°
2026-05-07 21:21 19.71425 72.13203 23573 ft 472 kts 137°
2026-05-07 21:22 19.68979 72.15521 23208 ft 469 kts 137°
2026-05-07 21:22 19.66584 72.17793 22797 ft 466 kts 137°
2026-05-07 21:22 19.64175 72.20078 22389 ft 462 kts 137°
2026-05-07 21:22 19.61780 72.22351 21996 ft 457 kts 137°
2026-05-07 21:23 19.59423 72.24587 21591 ft 452 kts 137°
2026-05-07 21:23 19.57089 72.26801 21205 ft 448 kts 137°
2026-05-07 21:23 19.54783 72.28987 20820 ft 442 kts 137°
2026-05-07 21:23 19.52499 72.31152 20440 ft 438 kts 137°
2026-05-07 21:24 19.50241 72.33291 20068 ft 433 kts 137°
2026-05-07 21:24 19.48000 72.35414 19693 ft 430 kts 138°
2026-05-07 21:24 19.45801 72.37496 19336 ft 427 kts 138°
2026-05-07 21:24 19.43601 72.39579 18976 ft 422 kts 138°
2026-05-07 21:25 19.41426 72.41637 18619 ft 417 kts 139°
2026-05-07 21:25 19.39275 72.43671 18266 ft 411 kts 139°
2026-05-07 21:25 19.37150 72.45680 17882 ft 407 kts 139°
2026-05-07 21:25 19.35046 72.47668 17473 ft 402 kts 139°
2026-05-07 21:26 19.32965 72.49634 17064 ft 398 kts 139°
2026-05-07 21:26 19.30906 72.51578 16674 ft 394 kts 139°
2026-05-07 21:26 19.28864 72.53504 16274 ft 391 kts 139°
2026-05-07 21:26 19.26839 72.55416 15888 ft 388 kts 139°
2026-05-07 21:27 19.24875 72.57360 15506 ft 386 kts 134°
2026-05-07 21:27 19.23260 72.59564 15130 ft 379 kts 122°
2026-05-07 21:27 19.22159 72.62046 14742 ft 366 kts 109°
2026-05-07 21:27 19.21629 72.64605 14360 ft 347 kts 97°
2026-05-07 21:28 19.21512 72.67097 13985 ft 330 kts 92°
2026-05-07 21:28 19.21501 72.69473 13622 ft 315 kts 91°
2026-05-07 21:28 19.21501 72.71744 13211 ft 303 kts 91°
2026-05-07 21:28 19.21497 72.73928 12801 ft 292 kts 91°
2026-05-07 21:29 19.21490 72.76040 12397 ft 282 kts 91°
2026-05-07 21:29 19.21480 72.78090 12000 ft 274 kts 91°
2026-05-07 21:29 19.21469 72.80080 11613 ft 267 kts 91°
2026-05-07 21:29 19.21457 72.82035 11221 ft 264 kts 91°
2026-05-07 21:30 19.21445 72.83967 10843 ft 262 kts 90°
2026-05-07 21:30 19.21432 72.85894 10475 ft 262 kts 90°
2026-05-07 21:30 19.21419 72.87828 10092 ft 262 kts 90°
2026-05-07 21:30 19.21405 72.89732 9732 ft 262 kts 90°
2026-05-07 21:31 19.21392 72.91655 9337 ft 262 kts 90°
2026-05-07 21:31 19.21378 72.93581 8940 ft 261 kts 90°
2026-05-07 21:31 19.21364 72.95501 8550 ft 261 kts 89°
2026-05-07 21:31 19.21350 72.97416 8143 ft 260 kts 89°
2026-05-07 21:32 19.21336 72.99312 7761 ft 254 kts 89°
2026-05-07 21:32 19.21321 73.01158 7377 ft 249 kts 89°
2026-05-07 21:32 19.21307 73.02967 6998 ft 244 kts 88°
2026-05-07 21:32 19.21293 73.04747 6626 ft 240 kts 88°
2026-05-07 21:33 19.21280 73.06506 6256 ft 237 kts 88°
2026-05-07 21:33 19.21266 73.08238 5869 ft 234 kts 88°
2026-05-07 21:33 19.21253 73.09954 5483 ft 231 kts 88°
2026-05-07 21:33 19.21239 73.11645 5104 ft 229 kts 88°
2026-05-07 21:34 19.21226 73.13325 4735 ft 227 kts 88°
2026-05-07 21:34 19.21169 73.14982 4345 ft 226 kts 99°
2026-05-07 21:34 19.20465 73.16412 4079 ft 215 kts 135°
2026-05-07 21:34 19.19194 73.17084 4005 ft 204 kts 173°
2026-05-07 21:35 19.17844 73.16823 4012 ft 202 kts 210°
2026-05-07 21:35 19.16658 73.16020 4017 ft 203 kts 211°
2026-05-07 21:35 19.15417 73.15304 4014 ft 203 kts 208°
2026-05-07 21:35 19.14159 73.14612 4013 ft 204 kts 208°
2026-05-07 21:36 19.12905 73.13927 4006 ft 203 kts 208°
2026-05-07 21:36 19.11643 73.13237 4006 ft 204 kts 208°
2026-05-07 21:36 19.10390 73.12532 3998 ft 203 kts 215°
2026-05-07 21:36 19.09565 73.11363 4004 ft 200 kts 249°
2026-05-07 21:37 19.09249 73.09947 3952 ft 198 kts 266°
2026-05-07 21:37 19.09200 73.08497 3758 ft 197 kts 271°
2026-05-07 21:37 19.09182 73.07050 3492 ft 195 kts 270°
2026-05-07 21:37 19.09156 73.05631 3224 ft 191 kts 269°
2026-05-07 21:38 19.09134 73.04249 2963 ft 185 kts 269°
2026-05-07 21:38 19.09113 73.02905 2719 ft 179 kts 269°
2026-05-07 21:38 19.09094 73.01619 2501 ft 172 kts 269°
2026-05-07 21:38 19.09075 73.00384 2305 ft 164 kts 269°
2026-05-07 21:39 19.09057 72.99190 2079 ft 160 kts 269°
2026-05-07 21:39 19.09040 72.98034 1906 ft 150 kts 269°
2026-05-07 21:39 19.09024 72.96984 1703 ft 140 kts 269°
2026-05-07 21:39 19.09009 72.95956 1526 ft 139 kts 269°
2026-05-07 21:40 19.08994 72.94933 1342 ft 139 kts 270°
2026-05-07 21:40 19.08979 72.93905 1162 ft 139 kts 270°
2026-05-07 21:40 19.08964 72.92897 985 ft 139 kts 270°
2026-05-07 21:40 19.08949 72.91865 811 ft 138 kts 270°
2026-05-07 21:41 19.08934 72.90865 658 ft 138 kts 270°
2026-05-07 21:41 19.08919 72.89861 484 ft 137 kts 271°
2026-05-07 21:41 19.08904 72.88854 321 ft 137 kts 270°
2026-05-07 21:41 19.08891 72.87853 139 ft 136 kts 270°
2026-05-07 21:42 19.08868 72.86878 41 ft 125 kts 269°
2026-05-07 21:42 19.08867 72.86028 174 ft 124 kts 272°
2026-05-07 21:42 19.08876 72.84885 627 ft 184 kts 273°
2026-05-07 21:42 19.09108 72.83491 1536 ft 194 kts 295°
2026-05-07 21:43 19.09812 72.82314 2673 ft 189 kts 307°
2026-05-07 21:43 19.10703 72.81241 3396 ft 200 kts 324°
2026-05-07 21:43 19.12031 72.80609 3865 ft 220 kts 344°
2026-05-07 21:43 19.13561 72.80205 4200 ft 236 kts 347°
2026-05-07 21:44 19.15201 72.79812 4141 ft 243 kts 348°
2026-05-07 21:44 19.16874 72.79801 4022 ft 244 kts 14°
2026-05-07 21:44 19.18330 72.80683 4010 ft 245 kts 43°
2026-05-07 21:44 19.19287 72.82166 4009 ft 246 kts 68°
2026-05-07 21:45 19.19710 72.83925 4012 ft 247 kts 78°
2026-05-07 21:45 19.19798 72.85743 4010 ft 249 kts 94°
2026-05-07 21:45 19.19526 72.87549 3994 ft 249 kts 99°
2026-05-07 21:45 19.19194 72.89349 3994 ft 249 kts 100°
2026-05-07 21:46 19.18857 72.91148 3994 ft 249 kts 100°
2026-05-07 21:46 19.18521 72.92946 3994 ft 249 kts 99°
2026-05-07 21:46 19.18268 72.94757 3995 ft 249 kts 92°
2026-05-07 21:46 19.18240 72.96583 3997 ft 248 kts 88°
2026-05-07 21:47 19.18254 72.98416 3997 ft 249 kts 88°
2026-05-07 21:47 19.18270 73.00246 3998 ft 249 kts 88°
2026-05-07 21:47 19.18286 73.02046 3999 ft 249 kts 88°
2026-05-07 21:47 19.18302 73.03875 3996 ft 244 kts 88°
2026-05-07 21:48 19.18315 73.05590 4005 ft 225 kts 88°
2026-05-07 21:48 19.18324 73.07223 4005 ft 220 kts 88°
2026-05-07 21:48 19.18331 73.08841 4002 ft 219 kts 89°
2026-05-07 21:48 19.17987 73.10402 4003 ft 222 kts 118°
2026-05-07 21:49 19.16879 73.11522 4007 ft 224 kts 152°
2026-05-07 21:49 19.15384 73.11992 4009 ft 225 kts 169°
2026-05-07 21:49 19.14357 73.12165 4007 ft 226 kts 171°
2026-05-07 21:49 19.12289 73.12467 4001 ft 226 kts 172°
2026-05-07 21:50 19.10743 73.12358 4001 ft 225 kts 204°
2026-05-07 21:50 19.09631 73.11258 4004 ft 221 kts 243°
2026-05-07 21:50 19.09292 73.10251 3951 ft 210 kts 260°
2026-05-07 21:50 19.09186 73.08788 3782 ft 197 kts 271°
2026-05-07 21:51 19.09187 73.07355 3545 ft 195 kts 270°
2026-05-07 21:51 19.09163 73.05921 3276 ft 194 kts 269°
2026-05-07 21:51 19.09137 73.04499 3015 ft 192 kts 269°
2026-05-07 21:51 19.09116 73.03110 2772 ft 186 kts 269°
2026-05-07 21:52 19.09096 73.01765 2540 ft 181 kts 269°
2026-05-07 21:52 19.09076 73.00453 2308 ft 177 kts 269°
2026-05-07 21:52 19.09057 72.99168 2082 ft 172 kts 269°
2026-05-07 21:52 19.09039 72.97920 1867 ft 168 kts 269°
2026-05-07 21:53 19.09021 72.96708 1662 ft 160 kts 269°
2026-05-07 21:53 19.09004 72.95596 1468 ft 144 kts 269°
2026-05-07 21:53 19.08988 72.94560 1285 ft 139 kts 270°
2026-05-07 21:53 19.08974 72.93552 1100 ft 138 kts 270°
2026-05-07 21:54 19.08959 72.92520 920 ft 138 kts 270°
2026-05-07 21:54 19.08944 72.91518 759 ft 137 kts 270°
2026-05-07 21:54 19.08929 72.90504 588 ft 138 kts 270°
2026-05-07 21:54 19.08914 72.89494 414 ft 137 kts 272°
2026-05-07 21:55 19.08896 72.88490 246 ft 136 kts 270°
2026-05-07 21:55 19.08876 72.87499 67 ft 133 kts 271°
2026-05-07 21:55 19.08866 72.86572 34 ft 111 kts 269°
2026-05-07 21:55 19.08856 72.85960 30 ft 56 kts 269°
2026-05-07 21:56 19.08869 72.85710 30 ft 24 kts 281°
2026-05-07 21:56 19.08929 72.85538 30 ft 26 kts 294°
2026-05-07 21:56 19.09021 72.85510 30 ft 17 kts 58°
2026-05-07 21:56 19.09027 72.85654 30 ft 29 kts 90°
2026-05-07 21:57 19.09031 72.85870 31 ft 30 kts 91°
2026-05-07 21:57 19.09035 72.86090 33 ft 30 kts 88°
2026-05-07 21:57 19.09040 72.86308 35 ft 21 kts 70°
2026-05-07 21:57 19.09135 72.86424 34 ft 22 kts 49°
2026-05-07 21:58 19.09235 72.86546 36 ft 21 kts 52°
2026-05-07 21:58 19.09334 72.86665 36 ft 22 kts 45°
2026-05-07 21:58 19.09441 72.86793 36 ft 24 kts 49°
2026-05-07 21:58 19.09555 72.86930 36 ft 21 kts 48°
2026-05-07 21:59 19.09555 72.87033 37 ft 14 kts 72°
2026-05-07 21:59 19.09624 72.87108 36 ft 15 kts 44°
2026-05-07 21:59 19.09660 72.87172 37 ft 6 kts 123°
2026-05-07 21:59 19.09627 72.87206 37 ft 7 kts 134°
2026-05-07 22:00 19.09610 72.87226 36 ft 1 kts 134°
2026-05-07 22:00 19.09605 72.87231 37 ft 0 kts 134°